• In Sweden
  • List of Countries
  • For 7 days
  • Water Temperature
  • Satellite Maps
  • Weather Map
  • Weather Widgets
  • user-avatar
    Login

    Hourly Weather Pernik

    Today, 24 September, Monday

    Time Temperature Precipitation Wind Pressure Humidity
    00:00 +18°C° 0 mm 1 mps 693 mmHg 59%
    01:00 +18°C° 0 mm 1 mps 692 mmHg 59%
    02:00 +17°C° 0 mm 2 mps 692 mmHg 56%
    03:00 +16°C° 0 mm 2 mps 691 mmHg 56%
    04:00 +16°C° 0 mm 2 mps 691 mmHg 57%
    05:00 +16°C° 0 mm 2 mps 691 mmHg 57%
    06:00 +17°C° 0 mm 2 mps 691 mmHg 55%
    07:00 +18°C° 0 mm 2 mps 691 mmHg 52%
    08:00 +21°C° 0 mm 1 mps 691 mmHg 48%
    09:00 +23°C° 0 mm 2 mps 691 mmHg 42%
    10:00 +25°C° 0 mm 3 mps 691 mmHg 37%
    11:00 +27°C° 0 mm 4 mps 691 mmHg 32%
    12:00 +27°C° 0 mm 4 mps 692 mmHg 34%
    13:00 +27°C° 0 mm 5 mps 692 mmHg 36%
    14:00 +27°C° 0 mm 5 mps 692 mmHg 38%
    15:00 +23°C° 0 mm 6 mps 692 mmHg 46%
    16:00 +20°C° 0 mm 6 mps 692 mmHg 54%
    17:00 +15°C° 0 mm 6 mps 692 mmHg 62%
    18:00 +14°C° 0 mm 5 mps 693 mmHg 66%
    19:00 +12°C° 0 mm 4 mps 694 mmHg 70%
    20:00 +10°C° 0 mm 3 mps 694 mmHg 73%
    21:00 +9°C° 0 mm 3 mps 695 mmHg 74%
    22:00 +9°C° 0 mm 3 mps 695 mmHg 74%
    23:00 +8°C° 0 mm 3 mps 696 mmHg 75%

    Tomorrow, 25 September, Tuesday

    Time Temperature Precipitation Wind Pressure Humidity
    00:00 +8°C° 0 mm 3 mps 696 mmHg 77%
    01:00 +7°C° 0 mm 3 mps 696 mmHg 78%
    02:00 +5°C° 0 mm 3 mps 696 mmHg 80%
    03:00 +6°C° 0 mm 2 mps 697 mmHg 82%
    04:00 +5°C° 0 mm 2 mps 697 mmHg 84%
    05:00 +5°C° 0 mm 2 mps 697 mmHg 86%
    06:00 +5°C° 0 mm 2 mps 697 mmHg 80%
    07:00 +6°C° 0 mm 2 mps 698 mmHg 74%
    08:00 +7°C° 0 mm 3 mps 698 mmHg 68%
    09:00 +8°C° 0 mm 3 mps 699 mmHg 57%
    10:00 +10°C° 0 mm 4 mps 699 mmHg 47%
    11:00 +12°C° 0 mm 4 mps 699 mmHg 36%
    12:00 +13°C° 0 mm 5 mps 699 mmHg 34%
    13:00 +13°C° 0 mm 5 mps 699 mmHg 32%
    14:00 +14°C° 0 mm 5 mps 699 mmHg 30%
    15:00 +13°C° 0 mm 5 mps 699 mmHg 31%
    16:00 +13°C° 0 mm 5 mps 699 mmHg 32%
    17:00 +12°C° 0 mm 5 mps 698 mmHg 33%
    18:00 +10°C° 0 mm 4 mps 699 mmHg 39%
    19:00 +8°C° 0 mm 3 mps 699 mmHg 45%
    20:00 +6°C° 0 mm 2 mps 699 mmHg 51%
    21:00 +5°C° 0 mm 2 mps 700 mmHg 54%
    22:00 +4°C° 0 mm 2 mps 700 mmHg 56%
    23:00 +5°C° 0 mm 1 mps 701 mmHg 59%

    Day after tomorrow, 26 September, Wednesday

    Time Temperature Precipitation Wind Pressure Humidity
    00:00 +4°C° 0 mm 1 mps 701 mmHg 61%
    01:00 +4°C° 0 mm 1 mps 701 mmHg 63%
    02:00 +3°C° 0 mm 1 mps 701 mmHg 65%
    03:00 +3°C° 0 mm 1 mps 701 mmHg 67%
    04:00 +3°C° 0 mm 1 mps 701 mmHg 68%
    05:00 +2°C° 0 mm 1 mps 701 mmHg 69%
    06:00 +4°C° 0 mm 1 mps 701 mmHg 63%
    07:00 +5°C° 0 mm 1 mps 702 mmHg 58%
    08:00 +6°C° 0 mm 1 mps 702 mmHg 52%
    09:00 +7°C° 0 mm 2 mps 702 mmHg 45%
    10:00 +9°C° 0 mm 3 mps 703 mmHg 38%
    11:00 +11°C° 0 mm 4 mps 703 mmHg 31%
    12:00 +12°C° 0 mm 4 mps 702 mmHg 29%
    13:00 +12°C° 0 mm 4 mps 702 mmHg 27%
    14:00 +13°C° 0 mm 4 mps 702 mmHg 26%
    15:00 +12°C° 0 mm 4 mps 701 mmHg 27%
    16:00 +12°C° 0 mm 4 mps 701 mmHg 28%
    17:00 +11°C° 0 mm 4 mps 701 mmHg 29%
    18:00 +9°C° 0 mm 3 mps 701 mmHg 36%
    19:00 +7°C° 0 mm 2 mps 701 mmHg 43%
    20:00 +4°C° 0 mm 2 mps 701 mmHg 50%
    21:00 +5°C° 0 mm 1 mps 701 mmHg 52%
    22:00 +4°C° 0 mm 1 mps 701 mmHg 54%
    23:00 +4°C° 0 mm 1 mps 702 mmHg 56%

    27 September, Thursday

    Time Temperature Precipitation Wind Pressure Humidity
    00:00 +3°C° 0 mm 1 mps 701 mmHg 57%
    01:00 +3°C° 0 mm 1 mps 701 mmHg 57%
    02:00 +3°C° 0 mm 1 mps 701 mmHg 58%
    03:00 +3°C° 0 mm 1 mps 701 mmHg 58%
    04:00 +3°C° 0 mm 1 mps 700 mmHg 59%
    05:00 +2°C° 0 mm 1 mps 700 mmHg 60%
    06:00 +4°C° 0 mm 1 mps 700 mmHg 55%
    07:00 +6°C° 0 mm 1 mps 700 mmHg 50%
    08:00 +6°C° 0 mm 2 mps 701 mmHg 45%
    09:00 +8°C° 0 mm 2 mps 701 mmHg 39%
    10:00 +10°C° 0 mm 3 mps 701 mmHg 33%
    11:00 +13°C° 0 mm 4 mps 700 mmHg 27%
    12:00 +14°C° 0 mm 4 mps 700 mmHg 25%
    13:00 +14°C° 0 mm 5 mps 699 mmHg 23%
    14:00 +15°C° 0 mm 5 mps 699 mmHg 22%
    15:00 +15°C° 0 mm 5 mps 698 mmHg 23%
    16:00 +14°C° 0 mm 5 mps 698 mmHg 24%
    17:00 +13°C° 0 mm 4 mps 697 mmHg 26%
    18:00 +11°C° 0 mm 4 mps 697 mmHg 32%
    19:00 +8°C° 0 mm 3 mps 697 mmHg 37%
    20:00 +6°C° 0 mm 2 mps 697 mmHg 43%
    21:00 +5°C° 0 mm 2 mps 696 mmHg 44%
    22:00 +5°C° 0 mm 2 mps 696 mmHg 45%
    23:00 +5°C° 0 mm 2 mps 696 mmHg 46%

    28 September, Friday

    Time Temperature Precipitation Wind Pressure Humidity
    00:00 +4°C° 0 mm 2 mps 696 mmHg 46%
    01:00 +4°C° 0 mm 2 mps 696 mmHg 46%
    02:00 +4°C° 0 mm 2 mps 695 mmHg 46%
    03:00 +4°C° 0 mm 2 mps 695 mmHg 46%
    04:00 +4°C° 0 mm 2 mps 695 mmHg 47%
    05:00 +4°C° 0 mm 2 mps 695 mmHg 48%
    06:00 +5°C° 0 mm 2 mps 695 mmHg 45%
    07:00 +7°C° 0 mm 2 mps 695 mmHg 42%
    08:00 +8°C° 0 mm 2 mps 695 mmHg 39%
    09:00 +12°C° 0 mm 2 mps 695 mmHg 35%
    10:00 +13°C° 0 mm 3 mps 695 mmHg 30%
    11:00 +17°C° 0 mm 3 mps 695 mmHg 26%
    12:00 +18°C° 0 mm 3 mps 695 mmHg 25%
    13:00 +19°C° 0 mm 4 mps 694 mmHg 23%
    14:00 +20°C° 0 mm 4 mps 694 mmHg 22%
    15:00 +19°C° 0 mm 4 mps 694 mmHg 24%
    16:00 +18°C° 0 mm 4 mps 693 mmHg 26%
    17:00 +18°C° 0 mm 3 mps 693 mmHg 28%
    18:00 +14°C° 0 mm 3 mps 692 mmHg 35%
    19:00 +13°C° 0 mm 2 mps 692 mmHg 42%
    20:00 +10°C° 0 mm 1 mps 692 mmHg 49%
    21:00 +9°C° 0 mm 1 mps 692 mmHg 51%
    22:00 +9°C° 0 mm 1 mps 692 mmHg 53%
    23:00 +9°C° 0 mm 1 mps 692 mmHg 55%

    29 September, Saturday

    Time Temperature Precipitation Wind Pressure Humidity
    00:00 +8°C° 0 mm 1 mps 692 mmHg 56%
    01:00 +8°C° 0 mm 1 mps 691 mmHg 57%
    02:00 +8°C° 0 mm 1 mps 691 mmHg 57%
    03:00 +8°C° 0 mm 1 mps 691 mmHg 58%
    04:00 +8°C° 0 mm 1 mps 691 mmHg 58%
    05:00 +8°C° 0 mm 1 mps 691 mmHg 59%
    06:00 +9°C° 0 mm 1 mps 691 mmHg 55%
    07:00 +10°C° 0 mm 1 mps 691 mmHg 51%
    08:00 +12°C° 0 mm 1 mps 692 mmHg 48%
    09:00 +14°C° 0 mm 1 mps 692 mmHg 43%
    10:00 +18°C° 0 mm 1 mps 692 mmHg 38%
    11:00 +19°C° 0 mm 2 mps 692 mmHg 33%
    12:00 +20°C° 0 mm 2 mps 692 mmHg 32%
    13:00 +20°C° 0 mm 2 mps 692 mmHg 30%
    14:00 +21°C° 0 mm 2 mps 692 mmHg 29%
    15:00 +21°C° 0 mm 2 mps 692 mmHg 31%
    16:00 +20°C° 0 mm 2 mps 692 mmHg 33%
    17:00 +19°C° 0 mm 2 mps 692 mmHg 35%
    18:00 +17°C° 0 mm 2 mps 692 mmHg 42%
    19:00 +15°C° 0 mm 1 mps 692 mmHg 49%
    20:00 +12°C° 0 mm 1 mps 692 mmHg 56%
    21:00 +12°C° 0 mm 1 mps 692 mmHg 59%
    22:00 +11°C° 0 mm 1 mps 692 mmHg 62%
    23:00 +11°C° 0 mm 1 mps 692 mmHg 65%
    Show more